Saint James, MN

10:27 AM CDT on August 27, 2016 (GMT -0500)
Saint James Municipal

Weather History for KJYG - April, 2012

Change the Weather History Date:

Wednesday, April 4, 2012

  Actual Average Record
Temperature  
Mean Temperature 50 °F -  
Max Temperature 62 °F 50 °F 75 °F (2005)
Min Temperature 37 °F 28 °F 13 °F (1982)
Degree Days  
Heating Degree Days 16    
Moisture  
Dew Point 22 °F    
Average Humidity 36    
Maximum Humidity 70    
Minimum Humidity 14    
Precipitation  
Precipitation 0.00 in - - ()
Sea Level Pressure  
Sea Level Pressure 30.01 in    
Wind  
Wind Speed 1 mph (ENE)    
Max Wind Speed 17 mph    
Max Gust Speed 23 mph    
Visibility 10 miles    
Events      
Averages and records for this station are not official NWS values.
T = Trace of Precipitation, MM = Missing Value Source: NWS Daily Summary

Daily Weather History Graph

Daily Weather History Graph

Search for Another Location

Airport or City:

Trip Planner

Search our weather history database for the weather conditions in past years. The results will help you decide how hot, cold, wet, or windy it might be!

Date:

Astronomy

Apr. 04, 2012 Rise Set
Actual Time 6:53 AM CDT 7:49 PM CDT
Civil Twilight 6:23 AM CDT 8:18 PM CDT
Nautical Twilight 5:49 AM CDT 8:54 PM CDT
Astronomical Twilight 5:12 AM CDT 9:30 PM CDT
Moon 5:41 PM CDT (4/4) 5:20 AM CDT (4/4)
Length of Visible Light 13h 54m
Length of Day
12h 56m
Waxing Gibbous, 94% of the Moon is Illuminated
Apr 4
Waxing Gibbous
Apr 6
Full
Apr 13
Last Quarter
Apr 21
New
Apr 29
First Quarter

Hourly Weather History & Observations

Time (CDT) Temp. Windchill Dew Point Humidity Pressure Visibility Wind Dir Wind Speed Gust Speed Precip Events Conditions
12:15 AM 46.4 °F - 26.6 °F 46% 30.05 in 10.0 mi Calm Calm - N/A   Clear
12:34 AM 44.6 °F - 24.8 °F 46% 30.05 in 10.0 mi Calm Calm - N/A   Clear
12:55 AM 44.6 °F - 24.8 °F 46% 30.06 in 10.0 mi Calm Calm - N/A   Clear
1:15 AM 42.8 °F - 24.8 °F 49% 30.05 in 10.0 mi Calm Calm - N/A   Clear
1:34 AM 42.8 °F - 26.6 °F 53% 30.05 in 10.0 mi Calm Calm - N/A   Clear
1:55 AM 42.8 °F - 24.8 °F 49% 30.05 in 10.0 mi Calm Calm - N/A   Clear
2:15 AM 42.8 °F - 26.6 °F 53% 30.05 in 10.0 mi Calm Calm - N/A   Clear
2:34 AM 42.8 °F - 26.6 °F 53% 30.04 in 10.0 mi Calm Calm - N/A   Clear
2:55 AM 41.0 °F - 26.6 °F 57% 30.04 in 10.0 mi Calm Calm - N/A   Clear
3:14 AM 41.0 °F - 26.6 °F 57% 30.04 in 10.0 mi Calm Calm - N/A   Clear
3:34 AM 39.2 °F - 26.6 °F 61% 30.04 in 10.0 mi Calm Calm - N/A   Clear
3:55 AM 39.2 °F - 26.6 °F 61% 30.04 in 10.0 mi Calm Calm - N/A   Clear
4:14 AM 39.2 °F - 26.6 °F 61% 30.04 in 10.0 mi Calm Calm - N/A   Clear
4:35 AM 39.2 °F - 26.6 °F 61% 30.04 in 10.0 mi Calm Calm - N/A   Clear
5:14 AM 37.4 °F - 26.6 °F 65% 30.05 in 10.0 mi Calm Calm - N/A   Clear
5:35 AM 37.4 °F - 26.6 °F 65% 30.05 in 10.0 mi Calm Calm - N/A   Clear
5:55 AM 37.4 °F - 26.6 °F 65% 30.06 in 10.0 mi Calm Calm - N/A   Clear
6:15 AM 37.4 °F - 28.4 °F 70% 30.06 in 10.0 mi Calm Calm - N/A   Clear
6:35 AM 37.4 °F - 26.6 °F 65% 30.06 in 10.0 mi Calm Calm - N/A   Clear
6:54 AM 37.4 °F - 26.6 °F 65% 30.06 in 10.0 mi Calm Calm - N/A   Clear
7:15 AM 37.4 °F - 26.6 °F 65% 30.07 in 10.0 mi Calm Calm - N/A   Clear
7:55 AM 39.2 °F - 26.6 °F 61% 30.07 in 10.0 mi Calm Calm - N/A   Clear
8:15 AM 42.8 °F - 26.6 °F 53% 30.08 in 10.0 mi Calm Calm - N/A   Clear
8:34 AM 44.6 °F 42.2 °F 26.6 °F 49% 30.08 in 10.0 mi NE 4.6 mph - N/A   Clear
8:55 AM 46.4 °F - 26.6 °F 46% 30.08 in 10.0 mi Calm Calm - N/A   Clear
9:15 AM 48.2 °F - 26.6 °F 43% 30.08 in 10.0 mi ENE 8.1 mph - N/A   Clear
9:34 AM 50.0 °F - 26.6 °F 40% 30.08 in 10.0 mi Calm Calm - N/A   Clear
10:14 AM 53.6 °F - 24.8 °F 33% 30.07 in 10.0 mi Calm Calm - N/A   Clear
10:35 AM 55.4 °F - 21.2 °F 26% 30.06 in 10.0 mi East 10.4 mph 16.1 mph N/A   Clear
10:55 AM 55.4 °F - 21.2 °F 26% 30.06 in 10.0 mi East 6.9 mph - N/A   Clear
11:14 AM 55.4 °F - 21.2 °F 26% 30.05 in 10.0 mi ENE 6.9 mph 16.1 mph N/A   Clear
11:35 AM 57.2 °F - 21.2 °F 25% 30.04 in 10.0 mi ENE 17.3 mph 23.0 mph N/A   Clear
11:55 AM 57.2 °F - 19.4 °F 23% 30.03 in 10.0 mi ENE 13.8 mph 20.7 mph N/A   Clear
12:15 PM 57.2 °F - 19.4 °F 23% 30.02 in 10.0 mi ENE 3.5 mph 19.6 mph N/A   Clear
12:34 PM 59.0 °F - 19.4 °F 22% 30.02 in 10.0 mi ENE 6.9 mph 16.1 mph N/A   Clear
12:55 PM 60.8 °F - 21.2 °F 22% 30.00 in 10.0 mi East 13.8 mph 18.4 mph N/A   Clear
1:15 PM 60.8 °F - 19.4 °F 20% 30.00 in 10.0 mi NE 6.9 mph 16.1 mph N/A   Clear
1:34 PM 60.8 °F - 19.4 °F 20% 29.99 in 10.0 mi East 5.8 mph 18.4 mph N/A   Clear
1:55 PM 60.8 °F - 19.4 °F 20% 29.98 in 10.0 mi ENE 9.2 mph - N/A   Clear
2:15 PM 60.8 °F - 17.6 °F 19% 29.98 in 10.0 mi Calm Calm - N/A   Clear
2:34 PM 60.8 °F - 17.6 °F 19% 29.97 in 10.0 mi ENE 8.1 mph - N/A   Clear
2:54 PM 60.8 °F - 15.8 °F 17% 29.96 in 10.0 mi Calm Calm - N/A   Clear
3:15 PM 62.6 °F - 15.8 °F 16% 29.96 in 10.0 mi Calm Calm - N/A   Clear
3:35 PM 62.6 °F - 15.8 °F 16% 29.95 in 10.0 mi Calm Calm - N/A   Clear
3:55 PM 62.6 °F - 15.8 °F 16% 29.94 in 10.0 mi Calm Calm - N/A   Clear
4:15 PM 62.6 °F - 15.8 °F 16% 29.93 in 10.0 mi NE 4.6 mph 16.1 mph N/A   Clear
4:34 PM 62.6 °F - 15.8 °F 16% 29.93 in 10.0 mi Calm Calm - N/A   Clear
4:55 PM 62.6 °F - 12.2 °F 14% 29.92 in 10.0 mi Calm Calm - N/A   Clear
5:14 PM 62.6 °F - 15.8 °F 16% 29.92 in 10.0 mi NE 6.9 mph - N/A   Clear
5:34 PM 62.6 °F - 12.2 °F 14% 29.92 in 10.0 mi Calm Calm - N/A   Clear
5:55 PM 62.6 °F - 15.8 °F 16% 29.92 in 10.0 mi Calm Calm - N/A   Clear
6:14 PM 60.8 °F - 15.8 °F 17% 29.93 in 10.0 mi Calm Calm - N/A   Clear
6:34 PM 60.8 °F - 15.8 °F 17% 29.93 in 10.0 mi Calm Calm - N/A   Clear
6:55 PM 60.8 °F - 15.8 °F 17% 29.94 in 10.0 mi Calm Calm - N/A   Clear
7:14 PM 59.0 °F - 17.6 °F 20% 29.94 in 10.0 mi Calm Calm - N/A   Clear
7:35 PM 57.2 °F - 17.6 °F 21% 29.95 in 10.0 mi Calm Calm - N/A   Clear
7:55 PM 57.2 °F - 19.4 °F 23% 29.95 in 10.0 mi Calm Calm - N/A   Clear
8:15 PM 55.4 °F - 21.2 °F 26% 29.95 in 10.0 mi Calm Calm - N/A   Clear
8:34 PM 55.4 °F - 21.2 °F 26% 29.95 in 10.0 mi Calm Calm - N/A   Clear
8:55 PM 55.4 °F - 21.2 °F 26% 29.95 in 10.0 mi Calm Calm - N/A   Clear
9:14 PM 53.6 °F - 23.0 °F 30% 29.95 in 10.0 mi Calm Calm - N/A   Clear
9:35 PM 53.6 °F - 23.0 °F 30% 29.96 in 10.0 mi Calm Calm - N/A   Clear
9:55 PM 51.8 °F - 24.8 °F 35% 29.96 in 10.0 mi Calm Calm - N/A   Clear
10:14 PM 51.8 °F - 24.8 °F 35% 29.96 in 10.0 mi Calm Calm - N/A   Clear
10:35 PM 51.8 °F - 24.8 °F 35% 29.95 in 10.0 mi Calm Calm - N/A   Clear
10:55 PM 48.2 °F - 26.6 °F 43% 29.96 in 10.0 mi Calm Calm - N/A   Clear
11:15 PM 46.4 °F - 28.4 °F 50% 29.96 in 10.0 mi Calm Calm - N/A   Clear
11:35 PM 48.2 °F - 28.4 °F 46% 29.96 in 10.0 mi Calm Calm - N/A   Clear
11:55 PM 46.4 °F - 28.4 °F 50% 29.96 in 10.0 mi Calm Calm - N/A   Clear